Alexandria, Egypt

2:23 PM EET on June 24, 2017 (GMT +0200)
Alexandria

Weather History for HEAX - February, 2014

Change the Weather History Date:

Tuesday, February 18, 2014

  Actual Average Record
Temperature  
Mean Temperature 57 °F -  
Max Temperature 68 °F 65 °F 81 °F (2016)
Min Temperature 46 °F 50 °F 42 °F (2009)
Degree Days  
Heating Degree Days 8    
Growing Degree Days 7 (Base 50)    
Moisture  
Dew Point 50 °F    
Average Humidity 76    
Maximum Humidity 94    
Minimum Humidity 48    
Precipitation  
Precipitation 0.00 in 0.02 in - ()
Sea Level Pressure  
Sea Level Pressure 30.29 in    
Wind  
Wind Speed 2 mph ()    
Max Wind Speed 9 mph    
Max Gust Speed -    
Visibility 5.8 miles    
Events      
Averages and records for this station are not official NWS values.
T = Trace of Precipitation, MM = Missing Value Source: Averaged Metar Reports

Daily Weather History Graph

Daily Weather History Graph

Search for Another Location

Airport or City:

Trip Planner

Search our weather history database for the weather conditions in past years. The results will help you decide how hot, cold, wet, or windy it might be!

Date:

Astronomy

Feb. 18, 2014 Rise Set
Actual Time 6:38 AM EET 5:49 PM EET
Civil Twilight 6:14 AM EET 6:14 PM EET
Nautical Twilight 5:45 AM EET 6:42 PM EET
Astronomical Twilight 5:17 AM EET 7:10 PM EET
Moon 9:06 PM EET (2/18) 8:15 AM EET (2/18)
Length of Visible Light 12h 00m
Length of Day
11h 10m
Waning Gibbous, 89% of the Moon is Illuminated
Feb 18
Waning Gibbous
Feb 22
Last Quarter
Mar 1
New
Mar 8
First Quarter
Mar 16
Full

Hourly Weather History & Observations

Time (EET) Temp. Dew Point Humidity Pressure Visibility Wind Dir Wind Speed Gust Speed Precip Events Conditions
12:00 AM 53.6 °F 48.2 °F 82% 30.27 in - Calm Calm - N/A   Clear
1:00 AM 51.8 °F 48.2 °F 88% 30.27 in - Calm Calm - N/A   Clear
2:00 AM 50 °F 48 °F 89% 30.29 in 6 mi Calm Calm - -  
2:00 AM 50.0 °F 48.2 °F 94% 30.27 in - Calm Calm - N/A   Clear
3:00 AM 50.0 °F 48.2 °F 94% 30.27 in 6.2 mi Calm Calm - N/A   Scattered Clouds
4:00 AM 48.2 °F 46.4 °F 93% 30.27 in 6.2 mi Calm Calm - N/A   Scattered Clouds
5:00 AM 47 °F 45 °F 89% 30.29 in 6 mi Calm Calm - -  
5:00 AM 46.4 °F 44.6 °F 93% 30.27 in - Calm Calm - N/A   Clear
6:00 AM 50.0 °F 48.2 °F 94% 30.27 in 6.2 mi Calm Calm - N/A   Scattered Clouds
7:00 AM 50.0 °F 48.2 °F 94% 30.30 in 3.7 mi Calm Calm - N/A   Scattered Clouds
8:00 AM 53 °F 51 °F 88% 30.32 in 4 mi Calm Calm - -   Mist
8:00 AM 51.8 °F 50.0 °F 94% 30.30 in 3.7 mi Calm Calm - N/A   Scattered Clouds
9:00 AM 59.0 °F 51.8 °F 77% 30.33 in 6.2 mi Calm Calm - N/A   Scattered Clouds
10:00 AM 62.6 °F 53.6 °F 72% 30.33 in 6.2 mi ESE 4.6 mph - N/A   Scattered Clouds
11:00 AM 66 °F 53 °F 53% 30.35 in 6 mi East 4.6 mph - -   Mostly Cloudy
11:00 AM 66.2 °F 53.6 °F 64% 30.33 in 6.2 mi East 4.6 mph - N/A   Scattered Clouds
12:00 PM 68.0 °F 50.0 °F 52% 30.33 in 6.2 mi ENE 4.6 mph - N/A   Scattered Clouds
1:00 PM 68.0 °F 51.8 °F 56% 30.30 in 6.2 mi NNE 4.6 mph - N/A   Scattered Clouds
2:00 PM 67 °F 52 °F 48% 30.29 in 6 mi North 6.9 mph - -   Partly Cloudy
2:00 PM 68.0 °F 51.8 °F 56% 30.27 in 6.2 mi North 6.9 mph - N/A   Scattered Clouds
3:00 PM 68.0 °F 51.8 °F 56% 30.27 in 6.2 mi NNE 8.1 mph - N/A   Scattered Clouds
4:00 PM 66.2 °F 51.8 °F 60% 30.27 in - North 8.1 mph - N/A   Clear
5:00 PM 64 °F 52 °F 56% 30.29 in 6 mi NNE 6.9 mph - -  
5:00 PM 59.0 °F 51.8 °F 77% 30.27 in - NNE 6.9 mph - N/A   Clear
6:00 PM 60.8 °F 51.8 °F 72% 30.27 in - NE 9.2 mph - N/A   Clear
7:00 PM 59.0 °F 50.0 °F 72% 30.30 in - NE 6.9 mph - N/A   Clear
8:00 PM 59 °F 51 °F 68% 30.32 in 6 mi NNE 8.1 mph - -  
8:00 PM 59.0 °F 51.8 °F 77% 30.30 in - NNE 8.1 mph - N/A   Clear
9:00 PM 59.0 °F 51.8 °F 77% 30.30 in - NE 3.5 mph - N/A   Clear
10:00 PM 57.2 °F 51.8 °F 82% 30.30 in - NE 3.5 mph - N/A   Clear
11:00 PM 56 °F 51 °F 77% 30.28 in 6 mi East 3.5 mph - -  
11:00 PM 57.2 °F 51.8 °F 82% 30.27 in - East 3.5 mph - N/A   Clear